Weather History for Tyler, TX

Change the Weather History Date:

Friday, September 6, 2013

  Actual Average Record
Temperature  
Mean Temperature 86 °F 79 °F  
Max Temperature 99 °F 89 °F 101 °F (1963)
Min Temperature 73 °F 70 °F 47 °F (1974)
Degree Days  
Heating Degree Days 0 0  
Month to date heating degree days 0 0  
Since 1 July heating degree days 0 0  
Cooling Degree Days 21 14  
Month to date cooling degree days 133 90  
Year to date cooling degree days 2249 2012  
Growing Degree Days 36 (Base 50)    
Moisture  
Dew Point 63 °F    
Average Humidity 54    
Maximum Humidity 84    
Minimum Humidity 24    
Precipitation  
Precipitation 0.00 in 0.12 in 2.54 in (1973)
Month to date precipitation 0.17 0.73  
Year to date precipitation 19.78 29.99  
Snow  
Snow 0.00 in - - ()
Month to date snowfall 0.0  
Since 1 July snowfall 0.0  
Since 1 September snowfall 0.0  
Snow Depth 0.00 in    
Sea Level Pressure  
Sea Level Pressure 30.02 in    
Wind  
Wind Speed 3 mph (South)    
Max Wind Speed 14 mph    
Max Gust Speed 18 mph    
Visibility 10 miles    
Events      
T = Trace of Precipitation, MM = Missing Value Source: NWS Daily Summary

Daily Weather History Graph

Daily Weather History Graph

Search for Another Location

Airport:

Trip Planner

Search our weather history database for the weather conditions in past years. The results will help you decide how hot, cold, wet, or windy it might be!

Date:

Astronomy

Sep. 06, 2013 Rise Set
Actual Time 6:59 AM CDT 7:39 PM CDT
Civil Twilight 6:35 AM CDT 8:03 PM CDT
Nautical Twilight 6:05 AM CDT 8:33 PM CDT
Astronomical Twilight 5:36 AM CDT 9:02 PM CDT
Moon 8:06 AM CDT (9/6) 8:12 PM CDT (9/6)
Length of Visible Light 13h 28m
Length of Day
12h 39m
New Moon, 2% of the Moon is Illuminated
Sep 6
New Moon
Sep 12
First Quarter
Sep 19
Full
Sep 26
Last Quarter
Oct 4
New

Hourly Weather History & Observations

Time (CDT) Temp. Heat Index Dew Point Humidity Pressure Visibility Wind Dir Wind Speed Gust Speed Precip Events Conditions
12:53 AM 81.0 °F 81.3 °F 59.0 °F 47% 30.06 in 10.0 mi SE 6.9 mph - N/A   Clear
1:53 AM 80.1 °F 81.2 °F 62.1 °F 54% 30.05 in 10.0 mi Calm Calm - N/A   Clear
2:53 AM 77.0 °F - 62.1 °F 60% 30.05 in 10.0 mi Calm Calm - N/A   Clear
3:53 AM 75.0 °F - 66.0 °F 73% 30.05 in 10.0 mi South 4.6 mph - N/A   Clear
4:53 AM 75.9 °F - 66.9 °F 74% 30.05 in 10.0 mi Calm Calm - N/A   Clear
5:53 AM 75.0 °F - 68.0 °F 79% 30.05 in 10.0 mi South 4.6 mph - N/A   Clear
6:53 AM 73.9 °F - 68.0 °F 82% 30.06 in 10.0 mi South 4.6 mph - N/A   Clear
7:53 AM 75.9 °F - 69.1 °F 79% 30.07 in 9.0 mi Calm Calm - N/A   Clear
8:53 AM 82.0 °F 86.3 °F 71.1 °F 69% 30.09 in 10.0 mi SSW 4.6 mph - N/A   Clear
9:53 AM 87.1 °F 91.3 °F 69.1 °F 55% 30.09 in 10.0 mi Calm Calm - N/A   Clear
10:53 AM 90.0 °F 93.6 °F 68.0 °F 48% 30.10 in 10.0 mi NW 3.5 mph - N/A   Clear
11:53 AM 91.9 °F 94.1 °F 64.9 °F 41% 30.08 in 10.0 mi West 4.6 mph - N/A   Partly Cloudy
12:53 PM 96.1 °F 97.3 °F 63.0 °F 33% 30.06 in 10.0 mi Variable 3.5 mph - N/A   Partly Cloudy
1:53 PM 98.1 °F 97.7 °F 59.0 °F 27% 30.03 in 10.0 mi Variable 4.6 mph - N/A   Mostly Cloudy
2:53 PM 96.1 °F 96.0 °F 60.1 °F 30% 30.00 in 10.0 mi Calm Calm - N/A   Clear
3:53 PM 98.1 °F 97.2 °F 57.9 °F 26% 29.97 in 10.0 mi ESE 4.6 mph - N/A   Clear
4:53 PM 98.1 °F 96.4 °F 55.9 °F 24% 29.96 in 10.0 mi North 9.2 mph - N/A   Mostly Cloudy
5:53 PM 98.1 °F 96.8 °F 57.0 °F 25% 29.95 in 10.0 mi Variable 3.5 mph - N/A   Partly Cloudy
6:53 PM 96.1 °F 95.2 °F 57.9 °F 28% 29.95 in 10.0 mi NE 3.5 mph - N/A   Clear
7:53 PM 91.9 °F 91.2 °F 59.0 °F 33% 29.96 in 10.0 mi Calm Calm - N/A   Clear
8:53 PM 89.1 °F 88.8 °F 60.1 °F 38% 29.97 in 10.0 mi Calm Calm - N/A   Clear
9:53 PM 84.0 °F 84.4 °F 61.0 °F 46% 29.98 in 10.0 mi SE 3.5 mph - N/A   Mostly Cloudy
10:53 PM 84.9 °F 85.4 °F 62.1 °F 46% 29.98 in 10.0 mi SSE 5.8 mph - N/A   Mostly Cloudy
11:53 PM 84.0 °F 86.3 °F 66.0 °F 55% 29.98 in 10.0 mi South 10.4 mph - N/A   Clear